Flag for Italy Weather past 2 weeks in Venice, Italy

Now
64 °F

Scattered clouds.


Feels Like: 64 °F
Forecast: 59 / 65 °F
Wind: 10 mph from Southeast

Location: Venice / Tessera

Current Time: Apr 26, 2015 at 3:38:37 PM

Latest Report: Apr 26, 2015 at 2:50 PM


Visibility: N/A

Pressure: 29.92 "Hg

Humidity: 78%

Dew point: 57 °F

Location of VeniceLocation

Historic Weather in Venice — Graph

°F

Venice temperature yesterday

Maximum temperature yesterday: 64 °F (at 2:20 PM)
Minimum temperature yesterday: 52 °F (at 6:20 AM)
Average temperature yesterday: 59 °F

Past Weeks' High & Low Weather Summary

 TemperatureHumidityPressure
High70 °F (Apr 12, 3:50 PM)100% (Apr 12, 5:20 AM)30.42 "Hg (Apr 12, 5:20 AM)
Low41 °F (Apr 20, 5:50 AM)40% (Apr 12, 4:20 PM)29.89 "Hg (Apr 17, 7:20 PM)
Average58 °F73%30.11 "Hg
* Reported Apr 11 2:20 PM — Apr 26 2:20 PM, Venice, Weather by CustomWeather, © 2015

Note: Actual official high and low records may vary slightly from our data, if they occured in-between our weather recording intervals... More about our weather records

Advertising

Venice weather history for previous 24 hours

 ConditionsComfort  
Time TempWeatherWind HumidityBarometerVisibility
2:20 PM
Sun, Apr 26
64 °FScattered clouds.10 mph73%29.92 "HgN/A
1:50 PM64 °FScattered clouds.10 mph73%29.92 "HgN/A
1:20 PM64 °FScattered clouds.10 mph73%29.92 "HgN/A
12:50 PM64 °FScattered clouds.9 mph73%29.92 "HgN/A
12:20 PM64 °FScattered clouds.8 mph68%29.95 "HgN/A
11:50 AM66 °FScattered clouds.8 mph64%29.95 "HgN/A
11:20 AM64 °FPassing clouds.6 mph68%29.95 "HgN/A
10:50 AM64 °FScattered clouds.5 mph68%29.95 "HgN/A
10:20 AM63 °FScattered clouds.5 mph77%29.95 "Hg6 mi
9:50 AM63 °FScattered clouds.5 mph77%29.95 "Hg4 mi
9:20 AM61 °FFog.3 mph83%29.95 "Hg3 mi
8:50 AM59 °FFog.6 mph94%29.95 "Hg2 mi
8:20 AM59 °FFog.8 mph88%29.95 "Hg2 mi
7:50 AM57 °FFog.7 mph94%29.95 "Hg2 mi
7:20 AM57 °FFog.2 mph94%29.95 "Hg2 mi
6:50 AM57 °FPassing clouds.3 mph94%29.92 "Hg4 mi
6:20 AM57 °FPassing clouds.2 mph94%29.92 "Hg4 mi
5:50 AM59 °FPassing clouds.5 mph88%29.92 "Hg4 mi
5:20 AM57 °FPassing clouds.3 mph94%29.95 "Hg4 mi
4:50 AM57 °FPassing clouds.5 mph94%29.95 "Hg4 mi
4:20 AM57 °FPassing clouds.6 mph94%29.95 "Hg5 mi
3:20 AM59 °FPassing clouds.5 mph88%29.95 "HgN/A
2:50 AM59 °FPassing clouds.5 mph94%29.95 "HgN/A
2:20 AM59 °FPassing clouds.6 mph88%29.95 "HgN/A
1:50 AM59 °FPassing clouds.5 mph88%29.98 "HgN/A
1:20 AM59 °FPassing clouds.6 mph88%29.98 "HgN/A
12:50 AM59 °FPassing clouds.6 mph94%29.98 "HgN/A
12:20 AM59 °FPassing clouds.2 mph88%29.98 "HgN/A
11:50 PM
Sat, Apr 25
59 °FPassing clouds.2 mph88%29.98 "HgN/A
10:50 PM59 °FPassing clouds.5 mph88%29.98 "HgN/A
10:20 PM59 °FPassing clouds.7 mph88%29.98 "HgN/A
9:50 PM59 °FPassing clouds.7 mph88%29.98 "HgN/A
9:20 PM59 °FPassing clouds.6 mph88%29.98 "HgN/A
8:50 PM59 °FScattered clouds.9 mph88%29.98 "HgN/A
8:20 PM61 °FScattered clouds.8 mph83%29.98 "HgN/A
7:50 PM61 °FScattered clouds.8 mph83%29.98 "HgN/A
7:20 PM61 °FScattered clouds.8 mph77%29.98 "HgN/A
6:50 PM61 °FScattered clouds.10 mph77%29.98 "HgN/A
6:20 PM61 °FScattered clouds.8 mph83%29.98 "HgN/A
5:50 PM61 °FScattered clouds.9 mph77%29.98 "HgN/A
5:20 PM61 °FScattered clouds.9 mph77%29.98 "HgN/A
4:50 PM61 °FScattered clouds.10 mph77%29.98 "HgN/A
4:20 PM61 °FScattered clouds.9 mph83%30.01 "HgN/A
3:50 PM63 °FScattered clouds.9 mph73%30.01 "HgN/A
3:20 PM63 °FPassing clouds.9 mph73%30.01 "HgN/A
Weather by CustomWeather, © 2015

See weather overviewHow to use our weather pages